EUTELSAT 7 WEST A

Last updated on Fri Oct 24 2025 00:02:48 GMT+0000 (Coordinated Universal Time)

1 37816U 11051A 25296.33310560 -.00000049 00000+0 00000+0 0 9990 2 37816 0.0910 45.2710 0006294 160.7434 298.6275 1.00272474 51510
UTC large
Height (km)
Speed (km/s)
/
Latitude / Longitude
Inclination (degrees)
Orbital Period (minutes)
Azimuth
Elevation
Range (km)
Doppler Factor

Next 0 passes for location: London (51.5072 / 0.1276)

Sorry there are no passes over London.